sat.trackr.live / text

‹ back to catalog

STARLINK-11235 [DTC]

NORAD 60726 · 2024-152G

PAYLOAD ACTIVE UNKNOWN

§ Identity

Operator
Country
US
Launch date
2024-08-28
Launch site
AFETR
Launch vehicle
Mass (kg)
RCS (m²)

Purposes: comms

External: N2YO · Heavens-Above · Gunter

§ Orbital elements

Epoch: 2026-09-21T08:01:38.080992Z

Period
91.74 min
Inclination
53.1599°
Eccentricity
0.0000865
Mean motion
15.69708120 rev/d
Perigee alt
359.1 km
Apogee alt
360.3 km
Semi-major
6,737.9 km
B*
5.2919e-6
RAAN
231.7735°
Arg perigee
63.3153°
Mean anomaly
296.7954°
Rev number
11,969

§ Raw data

STARLINK-11235 [DTC]1 60726U 24152G   26264.33446853  .00000053  00000+0  52919-5 0  99992 60726  53.1599 231.7735 0000865  63.3153 296.7954 15.69708120119690

JSON: /api/v1/satellites/60726 · /tle

For live sub-satellite position, see the globe view (requires WebGL).

§ Visibility from observer

Set your observer location to see the next 7 days of passes ≥ 10°. The values pass through the URL so the page stays shareable.

No JS? Fill the form by hand. The geolocation button needs JavaScript.